CAPE
1080 806 310 317 481 476 350 469 593 717 764 817 807 728 756 737 720 817 745 830 1003 1063 1159 1233 1090 1056 1038 953 822 777 836 752 684 524 511 420 471 522 673 807 846 748 270
984 643 330 445 550 568 514 563 663 715 749 861 809 682 624 668 773 712 721 749 843 971 1074 902 941 971 849 743 723 713 619 487 455 490 451 362 257 343 470 585 709 794 753
697 474 382 354 481 456 488 531 628 728 768 682 760 573 559 577 602 604 774 917 983 1080 984 870 911 796 505 442 312 246 264 306 326 393 345 296 232 230 293 223 379 634 753
593 514 371 267 268 274 292 349 389 472 620 632 627 590 570 504 598 540 573 797 927 989 951 892 771 722 511 281 198 289 136 137 147 207 264 231 248 201 116 63 156 159 322
443 396 316 160 117 120 185 287 309 341 385 456 443 426 419 375 359 381 407 635 711 762 844 704 491 306 145 16 32 85 108 100 96 128 220 295 423 453 400 141 59 2 1
419 402 250 188 146 141 149 178 194 247 275 315 299 270 195 269 289 272 364 483 628 626 516 411 257 109 0 49 81 229 37 20 86 238 212 189 140 343 195 87 117 29 40
0 5 30 42 41 51 55 59 133 256 276 258 280 237 205 150 207 247 175 214 236 254 228 185 134 50 5 131 158 131 0 27 52 30 55 76 125 233 216 102 47 23 11
0 0 0 21 5 18 23 13 30 149 271 274 294 264 189 116 24 0 53 44 98 66 59 55 52 16 4 95 110 35 36 11 0 4 52 74 110 41 78 78 44 43 30
0 0 0 0 0 2 53 33 4 17 109 230 247 276 217 139 58 0 0 3 2 18 22 11 4 0 0 29 30 44 10 0 0 0 11 43 21 19 2 1 47 24 12
0 0 0 0 0 0 0 13 111 16 3 7 126 222 279 195 116 28 0 0 0 0 0 0 0 0 0 0 0 16 39 0 0 0 0 0 59 109 135 49 20 8 0
0 0 0 0 0 0 0 1 52 257 192 30 0 0 54 79 73 57 19 0 0 0 0 0 0 0 0 0 0 0 0 0 0 0 0 0 151 269 210 1 1 0 0
0 0 0 0 0 0 0 0 3 22 131 31 0 15 4 0 38 115 119 89 0 0 0 0 0 0 0 0 0 0 0 0 0 0 0 0 41 195 195 35 0 0 0
0 0 0 0 0 0 0 0 0 0 0 0 0 0 16 0 0 0 0 0 3 0 0 0 0 0 0 0 0 0 0 0 0 0 0 0 0 328 293 77 15 0 0
0 0 0 0 0 0 0 0 0 0 0 0 0 1 2 0 0 98 68 8 7 3 0 0 0 0 0 0 0 0 0 0 0 0 0 0 0 46 250 123 32 0 0
0 0 0 0 0 0 0 0 0 0 0 0 0 0 1 2 2 1 120 89 2 0 0 0 0 0 0 0 0 0 0 0 0 0 0 0 0 0 70 190 78 6 0
0 0 0 0 0 0 0 0 0 0 0 0 0 0 0 0 2 3 2 44 100 66 6 0 0 0 0 0 0 0 0 0 14 18 0 0 0 0 0 161 202 92 8
0 0 0 0 0 0 0 0 0 0 0 0 0 0 0 0 0 0 0 0 2 2 31 7 0 0 0 3 11 32 10 9 39 101 12 2 0 0 0 0 110 136 55
0 0 0 0 0 0 0 0 0 0 0 0 0 0 0 0 0 0 0 0 2 2 9 9 31 7 15 1 7 47 69 131 173 130 83 8 0 0 0 0 0 49 26
0 0 0 0 0 0 0 0 0 0 0 0 0 0 0 0 0 0 0 0 0 1 1 2 3 12 35 15 50 62 49 66 113 143 120 95 54 8 0 0 0 0 0
0 0 0 0 0 0 0 0 0 0 0 0 0 0 0 0 0 0 0 0 0 0 1 1 0 3 4 11 40 12 60 67 57 88 108 84 86 74 50 18 0 0 0
0 0 0 0 0 0 0 0 0 0 0 0 0 0 0 0 0 0 0 0 0 0 2 0 0 0 3 0 0 0 15 8 35 23 65 66 82 90 58 52 54 0 0
0 0 0 0 0 0 0 0 0 0 0 0 0 0 0 0 0 0 0 0 0 0 0 0 0 0 0 0 1 3 6 5 18 22 0 24 22 47 43 46 33 63 61
0 0 0 0 0 0 0 0 0 0 0 0 0 0 0 0 0 0 0 0 0 0 0 0 0 1 0 0 0 1 29 26 1 21 5 3 0 0 10 43 25 20 32
0 0 0 0 0 0 0 0 0 0 0 0 0 0 0 0 0 0 0 0 0 0 0 0 0 0 0 0 0 0 1 2 8 10 0 27 4 2 14 27 25 8 22
0 0 0 0 0 0 0 0 0 0 0 0 0 0 0 0 0 0 0 0 0 0 0 0 0 0 0 0 1 2 1 0 0 2 2 4 19 13 16 26 44 54 30
0 0 0 0 0 0 0 0 0 0 0 0 0 0 0 0 0 0 0 0 0 0 0 0 0 0 0 0 0 0 1 3 3 2 2 2 1 3 9 18 16 31 79
CIN
-0 -12 -54 -62 -46 -52 -65 -42 -22 -6 -2 -2 -3 -5 -6 -6 -8 -4 -5 -1 -0 -0 -0 -0 -0 -0 -0 -0 -5 -6 -5 -6 -3 -11 -5 -13 -6 -0 -0 -0 -0 -0 -41
-2 -15 -46 -34 -22 -22 -29 -23 -11 -7 -4 -1 -2 -7 -9 -8 -4 -5 -2 -0 -0 -0 -0 -0 -0 -0 -1 -5 -7 -8 -12 -21 -17 -9 -15 -42 -69 -32 -3 -4 -1 -0 -0
-1 -17 -33 -36 -22 -21 -16 -9 -3 -0 -0 -4 -2 -7 -8 -8 -4 -6 -3 -2 -0 -0 -0 -0 -0 -0 -8 -11 -36 -57 -52 -48 -41 -20 -37 -61 -74 -68 -40 -54 -12 -0 -0
-0 -3 -20 -35 -27 -20 -14 -13 -14 -9 -1 -2 -3 -4 -4 -6 -3 -3 -10 -3 -0 -0 -0 -0 -0 -0 -12 -49 -72 -38 -100 -104 -94 -85 -58 -72 -59 -73 -104 -116 -69 -66 -27
-0 -8 -20 -64 -71 -56 -28 -7 -7 -7 -4 -4 -3 -4 -5 -5 -6 -11 -21 -10 -8 -0 -0 -3 -26 -53 -103 -203 -174 -112 -95 -101 -111 -100 -65 -42 -26 -15 -13 -82 -129 -0 -0
-0 -0 -26 -57 -78 -69 -48 -33 -25 -11 -17 -3 -5 -13 -22 -14 -14 -20 -25 -28 -16 -12 -30 -56 -99 -167 -3 -176 -140 -69 -153 -174 -110 -54 -55 -51 -59 -26 -53 -96 -84 -135 -112
-0 -201 -167 -170 -175 -169 -153 -155 -73 -11 -11 -12 -4 -11 -19 -43 -32 -38 -82 -76 -89 -87 -103 -118 -144 -235 -309 -162 -138 -111 -0 -155 -140 -179 -122 -92 -58 -36 -49 -83 -117 -145 -130
-0 -0 -0 -212 -163 -205 -219 -235 -203 -69 -25 -16 -6 -5 -34 -90 -204 -0 -168 -174 -149 -177 -183 -178 -191 -270 -109 -161 -155 -173 -161 -78 -0 -48 -162 -122 -92 -131 -110 -130 -154 -155 -131
-0 -0 -0 -0 -0 -49 -136 -197 -257 -228 -132 -49 -35 -17 -25 -75 -173 -0 -0 -47 -51 -233 -235 -261 -285 -0 -0 -220 -184 -175 -113 -0 -0 -0 -116 -194 -195 -193 -0 -0 -164 -146 -178
-0 -0 -0 -0 -0 -0 -0 -203 -122 -247 -266 -230 -104 -41 -23 -44 -92 -234 -0 -0 -0 -0 -0 -0 -0 -0 -0 -0 -0 -203 -194 -0 -0 -0 -0 -0 -207 -160 -112 -189 -152 -96 -0
-0 -0 -0 -0 -0 -0 -0 -62 -185 -57 -94 -131 -0 -0 -139 -113 -121 -130 -189 -0 -0 -0 -0 -0 -0 -0 -0 -0 -0 -0 -0 -0 -0 -0 -0 -0 -115 -88 -101 -9 -0 -0 -0
-0 -0 -0 -0 -0 -0 -0 -0 -67 -196 -117 -192 -0 -199 -99 -0 -153 -86 -76 -81 -0 -0 -0 -0 -0 -0 -0 -0 -0 -0 -0 -0 -0 -0 -0 -0 -157 -98 -100 -203 -0 -0 -0
-0 -0 -0 -0 -0 -0 -0 -0 -0 -0 -0 -0 -0 -0 -175 -18 -0 -0 -0 -0 -31 -0 -0 -0 -0 -0 -0 -0 -0 -0 -0 -0 -0 -0 -0 -0 -0 -65 -77 -181 -206 -0 -0
-0 -0 -0 -0 -0 -0 -0 -0 -0 -0 -0 -0 -0 -0 -0 -0 -0 -98 -115 -185 -204 -183 -0 -0 -0 -0 -0 -0 -0 -0 -0 -0 -0 -0 -0 -0 -0 -35 -76 -107 -174 -0 -0
-0 -0 -0 -0 -0 -0 -0 -0 -0 -0 -0 -0 -0 -0 -0 -0 -0 -0 -68 -103 -84 -0 -0 -0 -0 -0 -0 -0 -0 -0 -0 -0 -0 -0 -0 -0 -0 -0 -96 -79 -115 -36 -0
-0 -0 -0 -0 -0 -0 -0 -0 -0 -0 -0 -0 -0 -0 -0 -0 -0 -0 -0 -69 -80 -96 -135 -0 -0 -0 -0 -0 -0 -0 -0 -0 -67 -115 -0 -0 -0 -0 -0 -83 -64 -103 -32
-0 -0 -0 -0 -0 -0 -0 -0 -0 -0 -0 -0 -0 -0 -0 -0 -0 -0 -0 -0 -0 -0 -97 -114 -0 -0 -8 -109 -82 -70 -70 -68 -89 -78 -117 -29 -0 -0 -0 -0 -89 -80 -119
-0 -0 -0 -0 -0 -0 -0 -0 -0 -0 -0 -0 -0 -0 -0 -0 -0 -0 -0 -0 -0 -0 -90 -88 -114 -96 -142 -62 -109 -109 -101 -85 -76 -91 -95 -48 -0 -0 -0 -0 -0 -81 -115
-0 -0 -0 -0 -0 -0 -0 -0 -0 -0 -0 -0 -0 -0 -0 -0 -0 -0 -0 -0 -0 -0 -0 -0 -47 -63 -74 -109 -107 -117 -140 -141 -92 -82 -108 -133 -150 -53 -0 -0 -0 -0 -0
-0 -0 -0 -0 -0 -0 -0 -0 -0 -0 -0 -0 -0 -0 -0 -0 -0 -0 -0 -0 -0 -0 -0 -0 -0 -0 -30 -29 -99 -136 -131 -126 -150 -110 -105 -127 -176 -168 -190 -146 -0 -0 -0
-0 -0 -0 -0 -0 -0 -0 -0 -0 -0 -0 -0 -0 -0 -0 -0 -0 -0 -0 -0 -0 -0 -0 -0 -0 -0 -0 -0 -0 -0 -149 -160 -126 -118 -130 -111 -124 -180 -187 -199 -219 -0 -0
-0 -0 -0 -0 -0 -0 -0 -0 -0 -0 -0 -0 -0 -0 -0 -0 -0 -0 -0 -0 -0 -0 -0 -0 -0 -0 -0 -0 -0 -10 -112 -111 -116 -128 -0 -148 -103 -133 -181 -207 -213 -218 -230
-0 -0 -0 -0 -0 -0 -0 -0 -0 -0 -0 -0 -0 -0 -0 -0 -0 -0 -0 -0 -0 -0 -0 -0 -0 -0 -0 -0 -0 -0 -35 -7 -2 -93 -52 -95 -0 -0 -80 -194 -219 -250 -280
-0 -0 -0 -0 -0 -0 -0 -0 -0 -0 -0 -0 -0 -0 -0 -0 -0 -0 -0 -0 -0 -0 -0 -0 -0 -0 -0 -0 -0 -0 -0 -0 -51 -3 -0 -108 -94 -42 -145 -180 -184 -124 -265
-0 -0 -0 -0 -0 -0 -0 -0 -0 -0 -0 -0 -0 -0 -0 -0 -0 -0 -0 -0 -0 -0 -0 -0 -0 -0 -0 -0 -0 -0 -0 -0 -0 -0 -0 -0 -38 -72 -108 -130 -130 -137 -178
-0 -0 -0 -0 -0 -0 -0 -0 -0 -0 -0 -0 -0 -0 -0 -0 -0 -0 -0 -0 -0 -0 -0 -0 -0 -0 -0 -0 -0 -0 -0 -0 -0 -0 -0 -0 -0 -42 -33 -92 -105 -125 -127
Wind_Speed
11 21 22 23 25 27 30 29 28 26 25 25 25 25 25 23 21 17 15 18 21 21 21 21 24 25 23 21 23 23 24 20 20 17 13 9 8 9 8 5 3 25 32
26 22 24 23 24 26 28 29 28 28 27 25 25 25 24 20 13 16 18 21 23 24 22 23 24 26 24 21 21 23 22 20 18 19 14 10 9 10 7 5 2 2 30
20 24 25 24 24 25 26 27 27 28 27 27 27 26 21 10 9 12 15 19 23 24 23 24 25 27 26 19 17 20 21 17 19 20 19 10 4 11 11 6 3 3 5
2 12 20 25 23 24 23 25 26 27 27 27 26 22 8 11 9 8 11 16 21 24 23 19 20 21 18 9 13 26 28 27 18 16 19 12 4 7 10 8 5 3 4
4 3 2 13 24 24 24 23 24 25 26 26 25 19 11 11 12 10 10 14 18 21 22 20 17 17 12 9 6 24 26 27 27 11 19 21 5 6 8 7 4 4 5
9 6 12 16 18 26 25 23 23 23 24 25 25 22 15 13 12 12 12 13 16 19 22 22 19 15 12 10 8 23 24 25 26 25 25 8 7 7 8 6 6 8 8
15 14 16 17 20 22 24 25 25 24 23 22 23 23 19 15 14 12 12 14 16 17 18 19 19 16 16 17 22 23 23 22 22 23 23 21 15 8 7 7 7 10 11
18 18 18 20 21 21 23 23 24 24 24 21 19 22 21 18 16 15 14 13 13 15 15 16 17 17 17 20 21 21 21 21 20 20 21 21 20 18 12 10 10 12 13
20 20 19 19 21 22 23 23 23 23 23 22 8 15 18 19 18 16 15 14 14 13 14 14 15 16 18 18 18 18 19 19 20 20 19 18 17 17 17 16 14 14 14
21 22 20 21 23 23 23 23 23 22 22 22 21 20 10 13 16 18 17 16 15 14 14 14 14 14 15 16 16 16 16 16 17 17 17 17 16 16 15 15 15 15 16
22 23 23 24 23 23 23 23 23 22 22 22 21 20 19 17 16 16 17 18 16 16 16 15 15 15 14 14 14 15 15 15 15 14 15 15 15 14 14 14 14 15 15
23 23 24 24 24 24 24 23 23 23 23 23 23 22 20 18 18 19 20 21 20 17 17 17 17 16 14 12 12 13 14 14 13 13 12 12 13 13 13 13 13 13 14
23 24 25 25 25 24 24 24 24 24 24 23 24 24 22 20 21 21 21 22 20 21 21 20 18 17 16 12 11 12 13 14 14 11 11 10 11 11 11 11 12 12 12
24 25 25 25 25 25 24 25 24 24 25 25 25 25 24 23 23 23 23 23 19 19 21 22 22 20 15 14 14 16 16 16 17 13 10 9 9 10 10 10 11 11 11
25 26 26 26 25 25 25 25 25 25 25 26 26 26 26 25 25 25 24 23 23 22 21 23 21 21 21 21 20 19 17 17 17 14 11 8 7 7 8 9 9 10 10
26 27 28 27 26 26 26 26 26 26 26 26 26 27 27 26 26 25 26 25 25 25 25 25 23 19 22 23 25 24 25 20 17 14 11 9 6 5 7 7 8 8 8
27 28 29 28 27 26 26 26 26 26 26 27 27 28 28 27 27 27 26 27 28 28 28 26 25 25 24 23 28 26 24 26 22 12 10 9 9 4 5 6 6 6 6
28 29 29 28 28 27 27 27 27 27 27 27 28 28 28 28 28 27 28 29 29 29 29 28 27 27 24 26 28 30 30 24 22 18 13 10 10 9 7 5 5 6 5
28 30 30 30 28 27 26 27 27 27 28 28 28 29 29 29 29 28 29 29 29 28 29 30 28 28 28 30 31 30 30 29 27 22 21 16 11 11 11 10 6 6 5
27 29 30 30 29 28 26 26 27 27 28 29 29 30 30 30 30 30 29 30 29 29 29 30 31 31 29 29 31 34 34 30 25 28 24 22 20 15 14 13 13 11 7
26 28 29 29 29 29 28 27 27 28 29 29 29 30 30 31 31 31 31 30 30 29 30 31 30 31 28 29 29 34 30 29 24 16 17 24 24 24 22 19 17 16 15
24 25 27 29 29 29 29 28 26 27 28 28 29 30 30 31 31 31 32 31 31 30 30 32 31 31 28 29 30 34 35 34 30 26 24 22 26 26 26 26 24 22 19
22 23 24 27 28 29 29 28 28 27 26 29 30 31 31 31 31 31 31 31 31 30 31 31 32 31 32 30 31 28 32 33 33 28 27 27 28 28 29 27 28 28 27
20 21 21 23 25 26 27 29 30 29 29 29 29 30 31 31 31 31 31 31 31 31 32 31 31 31 31 32 30 30 29 30 34 37 33 35 32 34 29 26 27 29 29
18 18 17 18 21 23 25 27 28 29 28 28 28 30 31 31 31 32 31 32 32 31 32 32 32 32 31 30 30 32 33 35 31 35 40 37 37 38 37 35 30 28 26
16 16 15 15 17 19 21 23 25 27 28 30 30 30 30 30 30 31 31 31 31 32 32 32 32 32 32 31 31 30 31 31 36 34 37 41 41 39 37 36 36 34 33
Wind_Direction
154 118 109 104 94 82 64 59 49 39 32 34 39 45 48 42 39 29 27 34 42 44 45 44 49 50 45 41 43 44 43 31 34 30 23 18 17 18 19 26 116 117 76
80 113 104 104 95 87 77 68 61 54 46 35 37 44 45 35 18 32 38 43 50 53 48 52 54 54 47 39 37 41 36 31 30 33 22 14 12 13 10 10 22 51 74
56 104 98 98 95 89 86 79 70 62 57 54 52 48 32 0 2 20 28 37 48 53 54 57 58 58 54 33 23 32 35 28 33 34 31 8 349 10 10 355 339 345 0
259 143 113 93 95 91 90 84 79 72 61 56 51 32 341 358 355 357 13 28 43 57 56 45 45 47 28 349 146 90 75 66 29 22 30 8 328 349 359 353 331 282 308
311 231 240 358 85 88 85 89 86 79 71 57 51 18 348 353 4 355 360 18 37 53 55 48 33 24 346 320 236 91 92 83 77 0 31 38 214 325 346 334 299 297 296
341 318 344 350 356 35 73 83 84 88 81 73 59 32 359 358 355 357 2 13 35 50 60 58 38 9 338 314 291 68 79 76 73 70 68 333 325 331 338 304 308 334 334
358 351 350 351 358 10 25 40 53 75 85 87 73 55 18 357 356 343 353 13 36 45 50 51 41 13 355 2 63 73 69 57 52 64 70 47 8 313 269 283 307 334 349
5 359 355 359 0 359 13 16 21 28 39 86 97 74 49 17 2 359 356 358 13 32 40 41 36 18 9 31 51 60 61 55 42 46 58 55 46 30 355 326 326 342 351
6 3 354 350 355 358 5 13 19 18 19 15 96 118 90 53 16 353 351 359 2 8 17 24 28 28 26 34 39 53 57 61 58 57 52 34 34 33 35 22 4 352 348
2 1 349 350 356 354 1 359 4 17 15 18 16 359 215 134 76 15 358 344 347 358 355 353 359 5 16 28 40 48 59 57 53 50 47 42 38 31 31 23 20 13 5
359 355 353 352 349 351 359 357 357 359 359 359 5 5 15 349 288 269 324 357 356 344 341 345 342 344 351 10 23 34 44 47 43 37 38 49 42 27 26 28 25 24 19
358 352 353 351 347 346 353 353 354 359 1 358 348 341 349 355 357 338 307 290 311 347 346 337 330 333 343 354 12 22 26 22 33 37 38 48 52 31 20 18 20 17 17
355 353 350 351 349 351 351 353 355 356 353 351 345 341 339 340 334 332 330 322 327 319 318 328 332 330 331 348 2 5 6 9 15 30 25 35 37 38 34 22 11 12 16
358 352 348 349 353 353 353 351 350 350 348 344 343 340 338 336 333 330 326 323 330 331 323 319 314 320 330 332 335 334 339 344 344 4 30 35 38 27 27 25 18 12 14
1 357 355 354 353 351 351 350 350 347 346 343 341 338 336 332 328 327 327 329 325 322 322 317 318 316 309 310 318 321 328 332 338 347 2 19 26 24 18 15 20 9 8
2 359 357 356 355 354 353 350 349 347 345 345 342 338 336 334 327 326 323 322 322 321 318 314 313 316 309 307 306 306 304 319 328 336 346 352 8 11 8 10 7 12 7
7 3 360 359 0 360 357 355 353 351 348 345 343 342 339 336 332 328 325 320 316 313 314 316 314 308 306 308 299 302 307 301 308 324 329 335 339 345 344 353 356 3 13
9 6 3 360 360 1 1 359 357 354 353 350 346 343 341 340 337 333 329 323 319 315 312 312 311 307 309 310 306 299 297 306 306 305 319 323 321 322 319 318 332 340 352
8 6 4 2 0 1 1 1 0 359 356 352 352 349 345 342 339 336 333 329 326 323 317 313 311 311 304 303 303 301 300 299 298 302 302 304 307 308 309 306 294 306 317
9 9 7 8 5 4 4 2 360 358 356 355 354 352 350 347 345 342 337 332 330 328 326 323 316 309 305 302 297 296 297 301 306 295 298 299 298 296 299 299 300 295 284
7 6 5 5 3 1 357 353 349 349 351 351 351 351 351 350 349 348 344 340 337 333 329 326 324 319 315 306 299 294 304 306 306 301 297 295 296 292 292 293 294 294 293
14 13 10 8 6 5 4 360 357 352 354 354 354 353 353 353 353 353 351 348 345 339 336 332 329 320 319 319 305 299 298 298 300 302 299 294 291 292 291 289 290 289 290
18 19 18 18 17 13 11 6 2 358 355 350 349 350 351 352 352 352 352 352 352 350 340 337 333 328 318 315 316 308 299 297 300 298 297 298 296 290 290 291 288 287 286
18 21 27 28 24 22 20 14 10 5 360 358 356 354 353 355 355 355 354 353 352 351 347 344 345 338 330 319 317 309 314 307 297 294 294 291 290 284 290 296 294 289 285
20 28 35 34 27 23 19 15 11 8 7 2 357 353 352 352 353 354 355 355 353 354 350 348 344 342 341 335 326 316 310 306 308 300 292 297 289 283 283 286 289 290 291
21 29 34 36 32 29 26 21 16 11 8 3 2 359 356 356 357 357 357 356 357 354 354 353 351 348 343 339 336 330 320 312 306 302 297 296 291 290 287 285 283 284 283